Location: Santa Giusta
(39.8800°N, 8.6069°E)
Time: 16:11:28
(UTC+00:00)

Feng Yun 1-1 Rocket - Pass Details

Date: 02 February 2023
Orbit: 830 x 933 km, 99.1° (Epoch: 01 April)

Event Time Altitude Azimuth Distance (km) Brightness Sun altitude
Rises 18:29:57 0° 156° (SSE) 3,473 7.2 -20.2°
Reaches altitude 10° 18:32:23 10° 154° (SSE) 2,522 6.5 -20.7°
Maximum altitude 18:37:55 66° 73° (ENE) 934 4.1 -21.7°
Drops below altitude 10° 18:43:21 10° 352° (N) 2,477 6.7 -22.8°
Sets 18:45:43 0° 350° (N) 3,405 7.4 -23.2°
